When you browse on this site, cookies collect data to enhance your experience and personalize the content and advertising you see.
Visit our Privacy Policy to learn more. By continuing to use the site, you agree to this use of cookies and data.

Meteo pe oră la Hajfong

Astăzi, 14 August, Vineri

Timp Temperatura Precipitaţii Vânt Presiune Umiditate
00:00 +29°C° 1.5 mm 4 m/s 753 mmHg 89%
01:00 +28°C° 0 mm 4 m/s 754 mmHg 89%
02:00 +28°C° 3.5 mm 4 m/s 753 mmHg 90%
03:00 +28°C° 3.5 mm 4 m/s 753 mmHg 92%
04:00 +27°C° 3.5 mm 3 m/s 753 mmHg 94%
05:00 +28°C° 1.6 mm 3 m/s 753 mmHg 93%
06:00 +28°C° 1.6 mm 2 m/s 754 mmHg 93%
07:00 +28°C° 1.6 mm 2 m/s 754 mmHg 92%
08:00 +28°C° 0.5 mm 2 m/s 754 mmHg 89%
09:00 +29°C° 0.5 mm 2 m/s 754 mmHg 86%
10:00 +30°C° 0.5 mm 2 m/s 754 mmHg 83%
11:00 +30°C° 1.2 mm 3 m/s 754 mmHg 83%
12:00 +30°C° 1.2 mm 3 m/s 754 mmHg 84%
13:00 +30°C° 1.2 mm 4 m/s 754 mmHg 84%
14:00 +30°C° 0.4 mm 4 m/s 753 mmHg 84%
15:00 +30°C° 0.4 mm 5 m/s 753 mmHg 83%
16:00 +30°C° 0.4 mm 5 m/s 752 mmHg 83%
17:00 +29°C° 0.1 mm 4 m/s 752 mmHg 85%
18:00 +29°C° 0.1 mm 4 m/s 753 mmHg 87%
19:00 +28°C° 0.1 mm 3 m/s 753 mmHg 90%
20:00 +28°C° 0.2 mm 3 m/s 753 mmHg 89%
21:00 +28°C° 0.2 mm 3 m/s 753 mmHg 89%
22:00 +28°C° 0.2 mm 3 m/s 754 mmHg 89%
23:00 +28°C° 1.3 mm 3 m/s 753 mmHg 90%

Mâine, 15 August, Sâmbătă

Timp Temperatura Precipitaţii Vânt Presiune Umiditate
00:00 +28°C° 1.3 mm 3 m/s 753 mmHg 90%
01:00 +28°C° 1.3 mm 3 m/s 753 mmHg 91%
02:00 +28°C° 1.6 mm 2 m/s 752 mmHg 91%
03:00 +28°C° 1.6 mm 2 m/s 752 mmHg 90%
04:00 +28°C° 1.6 mm 2 m/s 752 mmHg 90%
05:00 +28°C° 1 mm 2 m/s 752 mmHg 89%
06:00 +29°C° 1 mm 2 m/s 752 mmHg 88%
07:00 +29°C° 1 mm 2 m/s 753 mmHg 87%
08:00 +29°C° 2.1 mm 2 m/s 753 mmHg 85%
09:00 +30°C° 2.1 mm 3 m/s 753 mmHg 83%
10:00 +30°C° 2.1 mm 3 m/s 753 mmHg 81%
11:00 +30°C° 1.1 mm 4 m/s 752 mmHg 84%
12:00 +29°C° 1.1 mm 5 m/s 752 mmHg 87%
13:00 +29°C° 1.1 mm 5 m/s 752 mmHg 90%
14:00 +29°C° 0.2 mm 5 m/s 751 mmHg 89%
15:00 +29°C° 0.2 mm 4 m/s 751 mmHg 88%
16:00 +29°C° 0.2 mm 4 m/s 750 mmHg 87%
17:00 +29°C° 0.1 mm 4 m/s 751 mmHg 88%
18:00 +29°C° 0.1 mm 3 m/s 751 mmHg 88%
19:00 +28°C° 0.1 mm 3 m/s 751 mmHg 88%
20:00 +28°C° 0.3 mm 3 m/s 752 mmHg 89%
21:00 +28°C° 0.3 mm 3 m/s 752 mmHg 89%
22:00 +28°C° 0.3 mm 3 m/s 753 mmHg 89%
23:00 +28°C° 1.2 mm 3 m/s 753 mmHg 89%

Poimâine, 16 August, Duminică

Timp Temperatura Precipitaţii Vânt Presiune Umiditate
00:00 +28°C° 1.2 mm 3 m/s 752 mmHg 89%
01:00 +28°C° 1.2 mm 3 m/s 752 mmHg 89%
02:00 +28°C° 1.5 mm 3 m/s 752 mmHg 89%
03:00 +27°C° 1.5 mm 3 m/s 751 mmHg 90%
04:00 +27°C° 1.5 mm 2 m/s 751 mmHg 90%
05:00 +27°C° 0.8 mm 2 m/s 751 mmHg 90%
06:00 +27°C° 0.8 mm 2 m/s 752 mmHg 91%
07:00 +27°C° 0.8 mm 2 m/s 752 mmHg 91%
08:00 +28°C° 0.6 mm 2 m/s 752 mmHg 89%
09:00 +28°C° 0.6 mm 3 m/s 752 mmHg 88%
10:00 +28°C° 0.6 mm 3 m/s 753 mmHg 86%
11:00 +29°C° 0.8 mm 4 m/s 752 mmHg 86%
12:00 +29°C° 0.8 mm 4 m/s 752 mmHg 85%
13:00 +30°C° 0.8 mm 5 m/s 751 mmHg 84%
14:00 +29°C° 0.7 mm 5 m/s 751 mmHg 84%
15:00 +29°C° 0.7 mm 5 m/s 750 mmHg 83%
16:00 +29°C° 0.7 mm 5 m/s 749 mmHg 83%
17:00 +29°C° 0.5 mm 5 m/s 750 mmHg 85%
18:00 +28°C° 0.5 mm 4 m/s 750 mmHg 87%
19:00 +27°C° 0.5 mm 3 m/s 751 mmHg 89%
20:00 +27°C° 1.5 mm 3 m/s 751 mmHg 89%
21:00 +27°C° 1.5 mm 3 m/s 752 mmHg 89%
22:00 +28°C° 1.5 mm 2 m/s 753 mmHg 89%
23:00 +27°C° 2.1 mm 2 m/s 752 mmHg 90%

17 August, Luni

Timp Temperatura Precipitaţii Vânt Presiune Umiditate
00:00 +27°C° 2.1 mm 2 m/s 752 mmHg 90%
01:00 +27°C° 2.1 mm 2 m/s 752 mmHg 91%
02:00 +27°C° 1.7 mm 2 m/s 751 mmHg 92%
03:00 +27°C° 1.7 mm 3 m/s 751 mmHg 92%
04:00 +27°C° 1.7 mm 3 m/s 751 mmHg 93%
05:00 +26°C° 2.7 mm 2 m/s 751 mmHg 94%
06:00 +26°C° 2.7 mm 2 m/s 752 mmHg 95%
07:00 +26°C° 2.7 mm 2 m/s 752 mmHg 96%
08:00 +26°C° 1.5 mm 2 m/s 752 mmHg 95%
09:00 +27°C° 1.5 mm 3 m/s 753 mmHg 94%
10:00 +27°C° 1.5 mm 3 m/s 753 mmHg 93%
11:00 +27°C° 1.5 mm 3 m/s 752 mmHg 93%
12:00 +27°C° 1.5 mm 4 m/s 752 mmHg 93%
13:00 +27°C° 1.5 mm 4 m/s 752 mmHg 93%
14:00 +27°C° 1.6 mm 4 m/s 751 mmHg 93%
15:00 +28°C° 1.6 mm 3 m/s 751 mmHg 93%
16:00 +28°C° 1.6 mm 3 m/s 751 mmHg 92%
17:00 +28°C° 1 mm 3 m/s 751 mmHg 93%
18:00 +27°C° 1 mm 3 m/s 752 mmHg 93%
19:00 +27°C° 1 mm 3 m/s 752 mmHg 93%
20:00 +27°C° 1.6 mm 3 m/s 753 mmHg 92%
21:00 +27°C° 1.6 mm 3 m/s 753 mmHg 92%
22:00 +27°C° 1.6 mm 3 m/s 754 mmHg 91%
23:00 +27°C° 1.5 mm 3 m/s 753 mmHg 91%

18 August, Marţi

Timp Temperatura Precipitaţii Vânt Presiune Umiditate
00:00 +27°C° 1.5 mm 3 m/s 753 mmHg 90%
01:00 +27°C° 1.5 mm 3 m/s 753 mmHg 89%
02:00 +27°C° 1.8 mm 3 m/s 753 mmHg 90%
03:00 +27°C° 1.8 mm 3 m/s 752 mmHg 90%
04:00 +27°C° 1.8 mm 3 m/s 752 mmHg 91%
05:00 +27°C° 2.5 mm 3 m/s 753 mmHg 92%
06:00 +27°C° 2.5 mm 4 m/s 753 mmHg 92%
07:00 +27°C° 2.5 mm 4 m/s 753 mmHg 93%
08:00 +27°C° 3 mm 5 m/s 754 mmHg 93%
09:00 +27°C° 3 mm 5 m/s 754 mmHg 93%
10:00 +27°C° 3 mm 5 m/s 754 mmHg 93%
11:00 +28°C° 2.8 mm 5 m/s 754 mmHg 93%
12:00 +28°C° 2.8 mm 5 m/s 753 mmHg 92%
13:00 +28°C° 2.8 mm 4 m/s 753 mmHg 92%
14:00 +28°C° 0.3 mm 4 m/s 753 mmHg 91%
15:00 +28°C° 0.3 mm 4 m/s 752 mmHg 90%
16:00 +29°C° 0.3 mm 4 m/s 752 mmHg 89%
17:00 +29°C° 1 mm 4 m/s 752 mmHg 90%
18:00 +28°C° 1 mm 4 m/s 753 mmHg 90%
19:00 +28°C° 1 mm 4 m/s 753 mmHg 91%
20:00 +28°C° 2.1 mm 3 m/s 754 mmHg 91%
21:00 +28°C° 2.1 mm 3 m/s 754 mmHg 91%
22:00 +28°C° 2.1 mm 3 m/s 754 mmHg 91%
23:00 +28°C° 2.1 mm 3 m/s 754 mmHg 91%

19 August, Miercuri

Timp Temperatura Precipitaţii Vânt Presiune Umiditate
00:00 +28°C° 2.1 mm 3 m/s 754 mmHg 90%
01:00 +28°C° 2.1 mm 3 m/s 753 mmHg 90%
02:00 +27°C° 3 mm 3 m/s 753 mmHg 91%
03:00 +27°C° 3 mm 3 m/s 753 mmHg 93%
04:00 +27°C° 3 mm 3 m/s 752 mmHg 95%
05:00 +27°C° 5.7 mm 3 m/s 753 mmHg 95%
06:00 +27°C° 5.7 mm 3 m/s 753 mmHg 96%
07:00 +26°C° 5.7 mm 2 m/s 753 mmHg 97%
08:00 +27°C° 4.2 mm 3 m/s 753 mmHg 96%
09:00 +27°C° 4.2 mm 3 m/s 754 mmHg 96%
10:00 +27°C° 4.2 mm 3 m/s 754 mmHg 95%
11:00 +27°C° 2.4 mm 3 m/s 754 mmHg 94%
12:00 +28°C° 2.4 mm 2 m/s 753 mmHg 93%
13:00 +28°C° 2.4 mm 2 m/s 753 mmHg 92%
14:00 +28°C° 1.6 mm 2 m/s 753 mmHg 92%
15:00 +28°C° 1.6 mm 2 m/s 753 mmHg 93%
16:00 +27°C° 1.6 mm 2 m/s 752 mmHg 94%
17:00 +27°C° 1 mm 2 m/s 753 mmHg 94%
18:00 +27°C° 1 mm 1 m/s 753 mmHg 93%
19:00 +27°C° 1 mm 1 m/s 753 mmHg 93%
20:00 +27°C° 0.4 mm 1 m/s 754 mmHg 93%
21:00 +27°C° 0.4 mm 1 m/s 755 mmHg 93%
22:00 +27°C° 0.4 mm 1 m/s 755 mmHg 93%
23:00 +27°C° 0.4 mm 1 m/s 755 mmHg 93%
Arată mai mult